一网星座-0018星 (ONEWEB-0018 )

导读 | 星芒AI

ONEWEB-0018 是 OneWeb 卫星通信网络计划中的一颗低轨通信卫星,旨在为全球提供高速互联网服务。该卫星采用先进通信技术,支持宽带接入,特别服务于偏远和网络覆盖不足的地区。作为 OneWeb 低轨卫星星座的一部分,ONEWEB-0018 与其他卫星协同工作,构建全球无缝连接的通信网络。该卫星由空中客车防务与航天公司制造,并通过火箭发射部署至近地轨道,为政府、企业及个人用户提供可靠的通信解决方案。

基本信息
目录编号:
45434
目录名称:
ONEWEB-0018
国际标识:
2020-020L
轨道中心:
EARTH
卫星名称:
一网星座-0018星
卫星全名:
一网星座-0018星 (ONEWEB-0018 )
卫星状态:
在轨 (已飞行2093 天)
发射日期:
2020-03-21 UTC
国别 :
英国 (GB)
星等 :
--
轨道信息
数据来源 国际轨道数据 AOE轨道数据
星历时间 2025-12-13T05:37:42+0800
13小时前
查看轨道信息
2025-12-11T06:00:00+0800
2天前
查看轨道信息
半长轴 7595.822km 7595.826km
偏心率 0.00019 0.000176
轨道倾角 87.886° 87.886°
近地点辐角 100.816° 117.796°
升交点赤经 58.158° 58.551°
平近点角 259.319° 238.562°
近地点 1216.243km 1216.354km
远地点 1219.131km 1219.028km
周期 109.805分钟 109.805分钟
每日圈数 13.114164 13.114155
详细信息
平衡模式:
三轴稳定
覆盖范围:
全球
运营商:
一网卫星公司
运营商所在国:
英国
制造商(研发单位):
一网卫星公司
制造商所在国:
英国
使用方式:
暂无
卫星简介
OneWeb卫星网络由648颗重约125公斤的微型卫星组成,运行在1200公里的轨道上。 每颗卫星都能够提供至少每秒8千兆位的吞吐量,以使用其高吞吐量的Ku频段有效载荷为家庭和移动平台提供互联网接入。该卫星仍在工作。
2D轨道图
3D轨道图
轨道高度分析图
轨道倾角分析图
轨道综合分析图
查看轨道综合分析图